星链-34587 (STARLINK-34587)

导读 | 星芒AI

STARLINK-34587 是 SpaceX 星链计划中的一颗低轨道通信卫星,属于第6批星链卫星(Group 6)。该卫星于2023年发射,运行在约550公里高度的近地轨道,旨在为全球提供高速互联网服务。星链卫星采用可展开的太阳能板和先进通信技术,支持宽带数据传输。该计划最终目标是部署数万颗卫星,构建全球覆盖的卫星互联网网络。STARLINK-34587 在提升偏远地区网络接入能力、支持应急通信等方面具有重要意义。

基本信息
目录编号:
64735
目录名称:
STARLINK-34587
国际标识:
2025-144M
轨道中心:
EARTH
卫星名称:
星链-34587
卫星全名:
星链-34587 (STARLINK-34587)
卫星状态:
在轨 (已飞行130 天)
发射日期:
2025-07-02 UTC
国别 :
美国 (US)
星等 :
--
轨道信息
数据来源 国际轨道数据
星历时间: 2025-11-08T19:47:58+0800
1天前
查看轨道信息
半长轴: 6853.475km
偏心率: 0.0001392
轨道倾角: 53.160°
近地点辐角 62.928°
升交点赤经 24.160°
平近点角 297.186°
近地点: 474.385km
远地点: 476.295km
周期: 94.108分钟
每日圈数: 15.301591
详细信息
固有亮度:
5
最大亮度:
2.5
卫星平台:
Starlink V1.0
覆盖范围:
全球
运营商:
太空探索技术公司
运营商所在国:
美国
制造商(研发单位):
太空探索技术公司
制造商所在国:
美国
使用方式:
暂无
卫星简介
Starlink 计划是 SpaceX 推出的全球卫星互联网项目,通过发射低轨道卫星,为全球尤其是偏远地区提供高速、低延迟的互联网服务。自 2019 年起,Starlink 已部署数千颗卫星,旨在缩小全球数字鸿沟,推动互联网普及。该项目还为军事、航空等行业提供通信支持,带来广泛经济效益。
2D轨道图
3D轨道图
轨道高度分析图
轨道倾角分析图
轨道综合分析图
查看轨道综合分析图